Dashboard

GC7DCWN - ALAS #20#

by S&T147

published: Wed, 11 Oct 2017 7:01:11 am

Certitude Solution



Puzzle stats
355 Woo-Hoo!
47 D'Oh!
Latest activity:
Sun, 25 Feb 2018
Note that some of those attempts may have been anonymous.



You can subscribe to an RSS feed for:
 this puzzle
 S&T147's puzzles
 puzzles in N50 E012 quadrangle
 puzzles in Sachsen
 all puzzles

Your geocaching name is unknown, please sign in to identify yourself. How does it work?

Puzzle solvers, you can certify your solution here:
Show solution 
Show attempts 

(keyword required)
  Stay anonymous

Certified solvers

RankUserTime (Berlin, Europe)
1.talblickrangerWed, 11 Oct 2017 7:08:55 am
2.RemtengrünerWed, 11 Oct 2017 7:31:05 am
3.La.Re.Wed, 11 Oct 2017 7:31:48 am
4.MC tapfer & clumsyWed, 11 Oct 2017 7:58:26 am
5.Rezi73Wed, 11 Oct 2017 7:59:04 am
6.muldenmystWed, 11 Oct 2017 7:59:12 am
7.ungmicWed, 11 Oct 2017 8:18:10 am
8.hoschi_fgWed, 11 Oct 2017 8:26:02 am
9.die eckiesWed, 11 Oct 2017 8:36:59 am
10.Team AntonijaWed, 11 Oct 2017 8:44:48 am
11.PulchenWed, 11 Oct 2017 8:54:39 am
12.LyssiWed, 11 Oct 2017 8:58:08 am
13.geobaemiWed, 11 Oct 2017 9:04:06 am
14.ml8108115Wed, 11 Oct 2017 9:05:01 am
15.slydaggyWed, 11 Oct 2017 9:05:43 am
16.JujahWed, 11 Oct 2017 9:08:11 am
17.Auede⚒Wed, 11 Oct 2017 9:10:08 am
18.Die ErdbärenWed, 11 Oct 2017 9:23:41 am
19.KaTi-95Wed, 11 Oct 2017 9:31:27 am
20.RokatosWed, 11 Oct 2017 10:21:57 am
21.Die MondputzerWed, 11 Oct 2017 10:35:51 am
22.steroli8005Wed, 11 Oct 2017 10:36:29 am
23.Team KlaRoWed, 11 Oct 2017 10:36:43 am
24.Andreas_1978Wed, 11 Oct 2017 10:56:48 am
25.Puste66blumeWed, 11 Oct 2017 10:59:59 am
26.LungwitzerWed, 11 Oct 2017 11:14:09 am
27.Waldwichtel7Wed, 11 Oct 2017 11:17:29 am
28.ZiegelbandeWed, 11 Oct 2017 11:26:33 am
29.karl55Wed, 11 Oct 2017 11:55:13 am
30.JayDa2804Wed, 11 Oct 2017 12:16:45 pm
31.De WasserrattenWed, 11 Oct 2017 12:24:07 pm
32.SkajanaWed, 11 Oct 2017 12:48:52 pm
33.Der_HolzmichelWed, 11 Oct 2017 12:55:02 pm
34.superbone99Wed, 11 Oct 2017 1:16:21 pm
35.Tristi2001Wed, 11 Oct 2017 1:22:16 pm
36.toze1985Wed, 11 Oct 2017 2:16:23 pm
37.DarkDracoWed, 11 Oct 2017 2:18:16 pm
38.fritzfuchs31Wed, 11 Oct 2017 2:42:45 pm
39.fussel140Wed, 11 Oct 2017 2:50:11 pm
40.hectorcuperWed, 11 Oct 2017 2:52:10 pm
41.Mi.EnWed, 11 Oct 2017 3:13:22 pm
42.queenfrWed, 11 Oct 2017 3:13:36 pm
43.ceryWed, 11 Oct 2017 4:09:29 pm
44.Cora292Wed, 11 Oct 2017 4:44:45 pm
45.feesissWed, 11 Oct 2017 5:14:45 pm
46.Bleche112Wed, 11 Oct 2017 5:19:34 pm
47.urmel.1Wed, 11 Oct 2017 5:55:31 pm
48.harcjsWed, 11 Oct 2017 6:07:23 pm
49.BenExel2.0Wed, 11 Oct 2017 6:08:54 pm
50.DannenbärgerWed, 11 Oct 2017 6:42:57 pm
51.HexEnductionWed, 11 Oct 2017 7:52:01 pm
52.KeriandWed, 11 Oct 2017 8:03:50 pm
53.FRFrankWed, 11 Oct 2017 8:09:35 pm
54.SvesucofWed, 11 Oct 2017 8:13:33 pm
55.DB 2000Wed, 11 Oct 2017 8:14:12 pm
56.DeZweerimrammlerWed, 11 Oct 2017 8:25:42 pm
57.2WanderrattenWed, 11 Oct 2017 9:03:19 pm
58.Sjinhe OmWed, 11 Oct 2017 9:07:55 pm
59.FinandantWed, 11 Oct 2017 9:19:15 pm
60.Mauli-TeamWed, 11 Oct 2017 9:28:13 pm
61.WeingeisterWed, 11 Oct 2017 9:59:52 pm
62.Fire Chief 112Wed, 11 Oct 2017 10:42:54 pm
63.hammer68Wed, 11 Oct 2017 10:43:07 pm
64.manzelsWed, 11 Oct 2017 10:45:07 pm
65.@MYThu, 12 Oct 2017 12:24:45 am
66.romosammyThu, 12 Oct 2017 9:24:58 am
67.kire1974Thu, 12 Oct 2017 10:42:29 am
68.ZweilaenderteamThu, 12 Oct 2017 4:15:37 pm
69.Namenloser.HeldThu, 12 Oct 2017 5:49:24 pm
70.ERZgeo'11Thu, 12 Oct 2017 7:16:02 pm
71.Mr. HulkThu, 12 Oct 2017 8:29:50 pm
72.auge 2865Thu, 12 Oct 2017 8:34:58 pm
73.ERZ-SiebiThu, 12 Oct 2017 9:42:19 pm
74.CashkondorThu, 12 Oct 2017 9:44:52 pm
75.erzspatzThu, 12 Oct 2017 10:16:06 pm
76.WaschbärfamilieFri, 13 Oct 2017 9:11:26 am
77.KlabauterklausFri, 13 Oct 2017 9:49:51 am
78.QUlDproQUOFri, 13 Oct 2017 1:01:01 pm
79.gärtnerin85Fri, 13 Oct 2017 1:13:49 pm
80.R&M007Fri, 13 Oct 2017 1:25:24 pm
81.JOHROBSFri, 13 Oct 2017 4:06:06 pm
82.Lotte2011Fri, 13 Oct 2017 4:37:00 pm
83.BenniDDFri, 13 Oct 2017 6:16:32 pm
84.undeinsFri, 13 Oct 2017 6:29:15 pm
85.Rose38Fri, 13 Oct 2017 7:04:39 pm
86.piraten 3Fri, 13 Oct 2017 8:20:53 pm
87.DopplereffektFri, 13 Oct 2017 9:03:18 pm
88.lueFri, 13 Oct 2017 9:14:52 pm
89.Flying Eagles 4Fri, 13 Oct 2017 9:41:55 pm
90.king-tonSat, 14 Oct 2017 1:06:14 am
91.EllisGCSat, 14 Oct 2017 11:23:34 am
92.kami1405Sat, 14 Oct 2017 1:56:09 pm
93.fenoglio88Sat, 14 Oct 2017 4:35:17 pm
94.bhlichtSat, 14 Oct 2017 10:28:30 pm
95.BeschuSat, 14 Oct 2017 11:06:37 pm
96.Hasseröder-CrewSun, 15 Oct 2017 2:54:43 am
97.erz1971Sun, 15 Oct 2017 7:26:10 am
98.Impossible IdiotsMon, 16 Oct 2017 2:45:56 am
99.KleinfingerMon, 16 Oct 2017 12:17:10 pm
100.erichwesterwelleMon, 16 Oct 2017 4:36:45 pm
101.cartman57Mon, 16 Oct 2017 5:05:24 pm
102.KleinzschachwitzerMon, 16 Oct 2017 5:52:14 pm
103.cpdsMon, 16 Oct 2017 9:46:09 pm
104.cachesucher2523Mon, 16 Oct 2017 10:31:42 pm
105.dhag13Mon, 16 Oct 2017 10:46:05 pm
106.Frau GehTue, 17 Oct 2017 11:52:03 am
107.kirschen57Tue, 17 Oct 2017 3:05:36 pm
108.Kuchen-KurtTue, 17 Oct 2017 9:48:42 pm
109.HuckleberryFinn12Tue, 17 Oct 2017 10:56:52 pm
110.Drache61Wed, 18 Oct 2017 1:26:39 pm
111.El_RolfoWed, 18 Oct 2017 6:17:19 pm
112.HeliasThu, 19 Oct 2017 6:47:59 am
113.Firefighter SkippyThu, 19 Oct 2017 3:17:16 pm
114.Blutwurz76Thu, 19 Oct 2017 5:58:50 pm
115.SchwalbenhorstSat, 21 Oct 2017 8:07:20 pm
116.doktorhaasSat, 21 Oct 2017 10:03:57 pm
117.ForestSheriffSun, 22 Oct 2017 6:07:53 pm
118.Primel_Sun, 22 Oct 2017 10:38:17 pm
119.spoekesabgMon, 23 Oct 2017 7:56:32 pm
120.HebbedTue, 24 Oct 2017 4:17:44 pm
121.stiefelsTue, 24 Oct 2017 5:24:00 pm
122.Dynamo'sTue, 24 Oct 2017 7:33:24 pm
123.Frau PimTue, 24 Oct 2017 7:59:13 pm
124.PialeinWed, 25 Oct 2017 8:29:36 pm
125.jo_muThu, 26 Oct 2017 4:23:09 pm
126.CanaxFri, 27 Oct 2017 9:56:55 am
127.HeckenförsterFri, 27 Oct 2017 5:15:47 pm
128.Klecks89Fri, 27 Oct 2017 7:54:03 pm
129.T A R D I SFri, 27 Oct 2017 9:22:05 pm
130.Steve1971Sun, 29 Oct 2017 1:10:00 am
131.ScreensizeTue, 31 Oct 2017 10:31:59 am
132.missy1962Wed, 1 Nov 2017 5:37:26 pm
133.schuhlstrooßWed, 1 Nov 2017 7:40:21 pm
134.e-r-nFri, 3 Nov 2017 2:51:24 pm
135.sykkylvenSat, 4 Nov 2017 5:45:58 am
136.GaerteltierSat, 4 Nov 2017 6:15:59 pm
137.Stecho77+FrauchenSun, 5 Nov 2017 7:16:18 am
138.Miezel103Sun, 5 Nov 2017 9:37:11 am
139.Mäuser & RudiSun, 5 Nov 2017 12:43:29 pm
140.mugteamSun, 5 Nov 2017 7:28:46 pm
141.winnel eyesMon, 6 Nov 2017 6:22:58 pm
142.crazybastiTue, 7 Nov 2017 9:32:18 am
143.*Coati*Tue, 7 Nov 2017 9:45:32 pm
144.max 1Tue, 7 Nov 2017 9:45:48 pm
145.Schildi_2004Wed, 8 Nov 2017 10:22:17 pm
146.SuperlooserWed, 8 Nov 2017 10:45:12 pm
147.4czyksThu, 9 Nov 2017 8:16:23 am
148.akobySat, 11 Nov 2017 9:12:47 am
149.anjaundsvenSat, 11 Nov 2017 9:37:08 pm
150.Legolas26Sun, 12 Nov 2017 3:34:35 pm
151.bapfanSun, 12 Nov 2017 4:36:56 pm
152.CachewürmerMon, 13 Nov 2017 9:18:44 pm
153.ACS-KlausTue, 14 Nov 2017 10:39:39 am
154.Kaspar77Tue, 14 Nov 2017 8:27:21 pm
155.GAETAESat, 18 Nov 2017 1:32:20 pm
156.De KlopphölzerSat, 18 Nov 2017 9:21:09 pm
157.cedi99Sun, 19 Nov 2017 10:14:33 am
158.dachserSun, 19 Nov 2017 11:21:02 am
159.hool0605Sun, 19 Nov 2017 3:13:26 pm
160.ildi2Sun, 19 Nov 2017 4:28:34 pm
161.ACI2557Mon, 20 Nov 2017 7:32:59 pm
162.Volk-airTue, 21 Nov 2017 8:06:10 pm
163.MetuzalemThu, 23 Nov 2017 9:30:28 pm
164.Doc09380Thu, 23 Nov 2017 10:03:54 pm
165.compiprofiSat, 25 Nov 2017 8:12:55 pm
166.Holzwurm1977Mon, 27 Nov 2017 1:36:46 pm
167.Eichhörnchen53Mon, 27 Nov 2017 6:56:00 pm
168.Knuffi3008Mon, 27 Nov 2017 7:42:58 pm
169.ToliiWed, 29 Nov 2017 1:47:40 pm
170.sisa2011Sat, 2 Dec 2017 8:09:16 pm
171.chefchen70Sun, 3 Dec 2017 10:50:09 am
172.kleinmanu78Sun, 3 Dec 2017 10:10:31 pm
173.erzi95Mon, 4 Dec 2017 12:09:30 am
174.metalzwerg95Mon, 4 Dec 2017 3:58:47 pm
175.Jojo-JensenMon, 4 Dec 2017 7:50:33 pm
176.TheBinilyTue, 5 Dec 2017 9:15:15 pm
177.Trabi60Wed, 6 Dec 2017 1:40:49 pm
178.Mahadma_GanjaWed, 6 Dec 2017 3:17:45 pm
179.MeL_DezignsWed, 6 Dec 2017 5:26:39 pm
180.ANNI181Wed, 6 Dec 2017 5:58:05 pm
181.fightingsheldonsThu, 7 Dec 2017 3:55:51 pm
182.Buckel01Fri, 8 Dec 2017 7:30:43 pm
183.FCB04Wed, 13 Dec 2017 12:28:20 pm
184.SentahundFri, 15 Dec 2017 2:37:21 am
185.meddle1711Fri, 15 Dec 2017 6:28:36 pm
186.woldschraadSat, 16 Dec 2017 12:27:41 pm
187.Team SüdvorstadtTue, 19 Dec 2017 10:38:35 pm
188.detgottThu, 21 Dec 2017 2:49:03 pm
189.halsbacherFri, 22 Dec 2017 4:04:11 pm
190.camperfamilieSat, 23 Dec 2017 4:48:18 pm
191.Anastasija82Sun, 24 Dec 2017 10:07:21 am
192.MamamühlMon, 25 Dec 2017 6:34:44 pm
193.Niamh71Tue, 26 Dec 2017 1:29:34 pm
194.EBSSgeoTue, 26 Dec 2017 10:07:03 pm
195.Team Wenke68Wed, 27 Dec 2017 11:10:53 am
196.The Ranis BoysWed, 27 Dec 2017 7:31:09 pm
197.jukebox1971Wed, 27 Dec 2017 9:19:06 pm
198.barbarineFri, 29 Dec 2017 6:46:51 pm
199.tomate484Fri, 29 Dec 2017 10:39:32 pm
200.Team PriwinSat, 30 Dec 2017 3:00:21 pm
201.britispritiTue, 2 Jan 2018 1:24:54 pm
202.Tiger760Fri, 5 Jan 2018 11:33:41 am
203.Danielz1547/Domi79Fri, 5 Jan 2018 4:14:18 pm
204.Spatzenbande13Sat, 6 Jan 2018 3:53:28 pm
205.hazina malaikaSat, 6 Jan 2018 7:56:13 pm
206.PostigelTue, 9 Jan 2018 7:31:55 am
207.m-a-k-iWed, 10 Jan 2018 11:00:56 am
208.frecheOlleWed, 10 Jan 2018 11:24:58 am
209.Die MoosmutzelWed, 10 Jan 2018 11:08:22 pm
210.LimberghiniFri, 12 Jan 2018 2:13:14 am
211.CrassusxxLWed, 17 Jan 2018 4:31:17 pm
212.die jankisFri, 19 Jan 2018 8:09:47 pm
213.Blümchen_02Sat, 20 Jan 2018 4:57:32 pm
214.9604mecSat, 20 Jan 2018 6:33:17 pm
215.Tortuga1401Wed, 24 Jan 2018 8:25:29 pm
216.Fiffi75Fri, 26 Jan 2018 9:55:57 am
217.KafindiSat, 27 Jan 2018 7:50:33 pm
218.KeyzedSat, 27 Jan 2018 10:12:18 pm
219.MuffkuchenSun, 28 Jan 2018 11:52:42 am
220.koenigasSun, 28 Jan 2018 9:59:01 pm
221.Ewald9798Mon, 29 Jan 2018 12:08:06 am
222.GagscherFri, 2 Feb 2018 4:59:48 pm
223.Husti53Fri, 2 Feb 2018 5:19:44 pm
224.die vier edelsteineFri, 2 Feb 2018 9:15:31 pm
225.zeezeeweeFri, 2 Feb 2018 9:15:50 pm
226.topmoppelSat, 3 Feb 2018 7:55:34 pm
227.Zottel43Sun, 4 Feb 2018 10:27:40 am
228.agashSun, 4 Feb 2018 10:30:12 pm
229.TeamHilfi112Mon, 5 Feb 2018 4:46:11 pm
230.puppieleinMon, 5 Feb 2018 5:48:19 pm
231.MittelblockMon, 5 Feb 2018 10:21:33 pm
232.battuna24Tue, 6 Feb 2018 12:42:03 pm
233.Team sissifalkeFri, 9 Feb 2018 10:37:44 am
234.ellamarieSat, 10 Feb 2018 9:20:12 am
235.9augeSun, 11 Feb 2018 10:00:51 am
236.McGyver70Sun, 11 Feb 2018 4:09:21 pm
237.GeoRudiMon, 12 Feb 2018 9:36:47 pm
238.tau rusSat, 17 Feb 2018 5:17:32 pm
239.eselundkuhMon, 19 Feb 2018 9:36:40 pm
240.8672diggerTue, 20 Feb 2018 11:26:51 am
241.Howies_CrewWed, 21 Feb 2018 10:43:09 am
242.mackloosWed, 21 Feb 2018 7:51:43 pm
243.inra66Fri, 23 Feb 2018 8:47:14 pm
244.JESILCASun, 25 Feb 2018 6:32:35 pm